This is the latest recevied weather packets stored in our database for station/object LX0APE-4. If no packets are shown the sender has not sent any weather packets the latest 10 day(s).
| Time | Temp. | Humidity | Pressure | Rain* | Wind** | Luminosity | Snow |
|---|---|---|---|---|---|---|---|
| 1777137435 | 32.78° C | 13% | 5014.9 hPa | 0 mm | - | - | - |
| 1777137135 | 33.33° C | 13% | 5014.9 hPa | 0 mm | - | - | - |
| 1777136835 | 33.33° C | 13% | 5015 hPa | 0 mm | - | - | - |
| 1777136535 | 33.89° C | 12% | 5014.8 hPa | 0 mm | - | - | - |
| 1777136235 | 34.44° C | 12% | 5014.8 hPa | 0 mm | - | - | - |
| 1777135935 | 34.44° C | 12% | 5014.8 hPa | 0 mm | - | - | - |
| 1777135635 | 34.44° C | 12% | 5014.7 hPa | 0 mm | - | - | - |
| 1777135335 | 33.89° C | 12% | 5014.8 hPa | 0 mm | - | - | - |
| 1777135040 | 33.33° C | 11% | 5014.7 hPa | 0 mm | - | - | - |
| 1777135035 | 33.33° C | 11% | 5014.7 hPa | 0 mm | - | - | - |
| 1777134735 | 35° C | 12% | 5014.8 hPa | 0 mm | - | - | - |
| 1777134435 | 35.56° C | 10% | 5014.6 hPa | 0 mm | - | - | - |
| 1777134139 | 36.11° C | 10% | 5014.5 hPa | 0 mm | - | - | - |
| 1777134135 | 36.11° C | 10% | 5014.5 hPa | 0 mm | - | - | - |
| 1777133835 | 36.11° C | 10% | 5014.7 hPa | 0 mm | - | - | - |
| 1777133535 | 36.67° C | 10% | 5014.6 hPa | 0 mm | - | - | - |
| 1777133235 | 36.67° C | 10% | 5014.8 hPa | 0 mm | - | - | - |
| 1777132935 | 36.67° C | 12% | 5014.7 hPa | 0 mm | - | - | - |
| 1777132635 | 35.56° C | 10% | 5014.5 hPa | 0 mm | - | - | - |
| 1777132335 | 35.56° C | 12% | 5014.7 hPa | 0 mm | - | - | - |
| 1777132035 | 35.56° C | 12% | 5014.8 hPa | 0 mm | - | - | - |
| 1777131735 | 35° C | 12% | 5014.9 hPa | 0 mm | - | - | - |
| 1777131435 | 35° C | 12% | 5014.6 hPa | 0 mm | - | - | - |
| 1777131135 | 34.44° C | 12% | 5014.7 hPa | 0 mm | - | - | - |
| 1777130835 | 34.44° C | 13% | 5014.6 hPa | 0 mm | - | - | - |
* Rain latest hour (hover to see other rain measurements)
** Current wind speed in m/s (hover to see current wind gust speed)